CSN9531 ZBTJ-ZSPD

Flight info

Callsign CSN9531
Flight time 1h 38m
Altitude 37100
Route IGMOR4ZD IGMOR W36 LOTGO W575 GOTSU W201 HCH W5 TAO DCT URBAD W172 LATUX W108 MATNU
Aircraft A20N/M-SDE2E3FGHIRWXY/LB1

Departure

Time 2026-04-14 12:40
Airport Tianjin Binhai International Airport (ZBTJ)

Arrival

Time 2026-04-14 14:18
Airport Shanghai Pudong International Airport (ZSPD)
Time Latitude Longitude Altitude Speed Heading
2026-04-14 12:14 39.13174 117.34812 17 ft 0 kts 64°
2026-04-14 12:29 39.13168 117.34795 17 ft 2 kts 64°
2026-04-14 12:29 39.13160 117.34776 18 ft 2 kts 64°
2026-04-14 12:29 39.13155 117.34756 21 ft 2 kts 96°
2026-04-14 12:29 39.13162 117.34737 20 ft 2 kts 144°
2026-04-14 12:30 39.13166 117.34735 20 ft 0 kts 156°
2026-04-14 12:33 39.13147 117.34743 19 ft 7 kts 167°
2026-04-14 12:33 39.13094 117.34745 17 ft 7 kts 198°
2026-04-14 12:33 39.13064 117.34697 17 ft 7 kts 246°
2026-04-14 12:34 39.13057 117.34639 17 ft 7 kts 286°
2026-04-14 12:34 39.13088 117.34603 17 ft 6 kts 332°
2026-04-14 12:34 39.13127 117.34578 17 ft 6 kts 333°
2026-04-14 12:34 39.13167 117.34551 18 ft 7 kts 333°
2026-04-14 12:35 39.13208 117.34525 18 ft 6 kts 335°
2026-04-14 12:35 39.13249 117.34501 17 ft 7 kts 335°
2026-04-14 12:35 39.13284 117.34465 17 ft 6 kts 303°
2026-04-14 12:35 39.13287 117.34414 17 ft 6 kts 261°
2026-04-14 12:36 39.13294 117.34360 17 ft 8 kts 301°
2026-04-14 12:36 39.13361 117.34306 17 ft 14 kts 335°
2026-04-14 12:36 39.13449 117.34251 19 ft 14 kts 334°
2026-04-14 12:36 39.13536 117.34199 17 ft 14 kts 334°
2026-04-14 12:37 39.13624 117.34144 17 ft 14 kts 335°
2026-04-14 12:37 39.13713 117.34091 18 ft 14 kts 335°
2026-04-14 12:37 39.13803 117.34035 18 ft 14 kts 334°
2026-04-14 12:37 39.13893 117.33980 17 ft 14 kts 335°
2026-04-14 12:38 39.14077 117.33867 17 ft 15 kts 334°
2026-04-14 12:38 39.14103 117.33764 19 ft 14 kts 241°
2026-04-14 12:38 39.14059 117.33656 17 ft 14 kts 238°
2026-04-14 12:39 39.13998 117.33665 17 ft 9 kts 154°
2026-04-14 12:39 39.13912 117.33716 20 ft 43 kts 154°
2026-04-14 12:39 39.13416 117.34020 15 ft 114 kts 155°
2026-04-14 12:39 39.12510 117.34570 99 ft 162 kts 155°
2026-04-14 12:40 39.11511 117.35159 865 ft 151 kts 155°
2026-04-14 12:40 39.10551 117.35745 1525 ft 168 kts 153°
2026-04-14 12:40 39.09371 117.36489 1809 ft 209 kts 154°
2026-04-14 12:40 39.07941 117.37383 2147 ft 244 kts 155°
2026-04-14 12:41 39.06368 117.38359 2890 ft 256 kts 156°
2026-04-14 12:41 39.04748 117.39361 3808 ft 260 kts 157°
2026-04-14 12:41 39.03082 117.40388 4635 ft 270 kts 157°
2026-04-14 12:41 39.01383 117.41432 5468 ft 277 kts 156°
2026-04-14 12:42 38.99632 117.42531 6373 ft 284 kts 152°
2026-04-14 12:42 38.98057 117.44098 7248 ft 291 kts 130°
2026-04-14 12:42 38.97137 117.46407 8182 ft 294 kts 101°
2026-04-14 12:42 38.97079 117.49021 9159 ft 295 kts 82°
2026-04-14 12:43 38.97374 117.51642 10098 ft 298 kts 78°
2026-04-14 12:43 38.97739 117.54347 10595 ft 319 kts 78°
2026-04-14 12:43 38.98129 117.57268 10914 ft 343 kts 78°
2026-04-14 12:43 38.98529 117.60388 11336 ft 362 kts 79°
2026-04-14 12:44 38.98933 117.63638 12069 ft 371 kts 79°
2026-04-14 12:44 38.99303 117.66905 12869 ft 377 kts 83°
2026-04-14 12:44 38.99204 117.70320 13696 ft 385 kts 101°
2026-04-14 12:45 38.96805 117.76537 15157 ft 397 kts 124°
2026-04-14 12:45 38.95264 117.79512 15868 ft 403 kts 124°
2026-04-14 12:45 38.93694 117.82528 16574 ft 409 kts 124°
2026-04-14 12:45 38.92106 117.85594 17259 ft 415 kts 124°
2026-04-14 12:46 38.90504 117.88704 17954 ft 420 kts 124°
2026-04-14 12:46 38.88903 117.91821 18568 ft 426 kts 124°
2026-04-14 12:46 38.87264 117.95013 19149 ft 431 kts 124°
2026-04-14 12:46 38.85603 117.98250 19767 ft 435 kts 125°
2026-04-14 12:47 38.84016 118.01579 20356 ft 440 kts 119°
2026-04-14 12:47 38.82260 118.07768 21318 ft 449 kts 105°
2026-04-14 12:47 38.81323 118.13035 22074 ft 455 kts 102°
2026-04-14 12:48 38.80920 118.15682 22446 ft 458 kts 101°
2026-04-14 12:48 38.80142 118.21042 23166 ft 464 kts 101°
2026-04-14 12:48 38.79544 118.25137 23666 ft 469 kts 101°
2026-04-14 12:49 38.78277 118.33438 24404 ft 480 kts 102°
2026-04-14 12:49 38.77610 118.37663 24763 ft 486 kts 103°
2026-04-14 12:49 38.76926 118.41927 25121 ft 491 kts 103°
2026-04-14 12:49 38.76228 118.46244 25478 ft 496 kts 103°
2026-04-14 12:50 38.75531 118.50541 25817 ft 501 kts 103°
2026-04-14 12:50 38.74096 118.59364 26494 ft 511 kts 103°
2026-04-14 12:50 38.73365 118.63852 26829 ft 515 kts 103°
2026-04-14 12:51 38.72628 118.68365 27152 ft 520 kts 104°
2026-04-14 12:51 38.71882 118.72924 27471 ft 525 kts 104°
2026-04-14 12:51 38.71129 118.77513 27776 ft 529 kts 104°
2026-04-14 12:51 38.70367 118.82146 28079 ft 533 kts 104°
2026-04-14 12:52 38.69608 118.86754 28374 ft 537 kts 104°
2026-04-14 12:52 38.68831 118.91452 28667 ft 542 kts 104°
2026-04-14 12:52 38.68047 118.96181 28954 ft 546 kts 104°
2026-04-14 12:52 38.67255 119.00949 29231 ft 550 kts 104°
2026-04-14 12:53 38.66455 119.05751 29572 ft 552 kts 104°
2026-04-14 12:53 38.65641 119.10627 29975 ft 554 kts 104°
2026-04-14 12:53 38.65106 119.13821 30198 ft 555 kts 105°
2026-04-14 12:53 38.64036 119.20203 30740 ft 553 kts 105°
2026-04-14 12:54 38.63218 119.25069 31220 ft 550 kts 105°
2026-04-14 12:54 38.62425 119.29773 31668 ft 548 kts 105°
2026-04-14 12:54 38.61881 119.32989 31962 ft 547 kts 105°
2026-04-14 12:54 38.61077 119.37733 32390 ft 545 kts 105°
2026-04-14 12:55 38.60274 119.42459 32796 ft 543 kts 106°
2026-04-14 12:55 38.59211 119.48689 33340 ft 541 kts 106°
2026-04-14 12:55 38.58504 119.53405 33715 ft 542 kts 99°
2026-04-14 12:55 38.58208 119.58206 34083 ft 542 kts 96°
2026-04-14 12:56 38.58011 119.63013 34396 ft 541 kts 95°
2026-04-14 12:56 38.57872 119.67813 34697 ft 540 kts 94°
2026-04-14 12:56 38.57762 119.72612 34978 ft 540 kts 94°
2026-04-14 12:56 38.57660 119.77403 35252 ft 539 kts 94°
2026-04-14 12:57 38.57555 119.82191 35520 ft 539 kts 94°
2026-04-14 12:57 38.57445 119.86976 35782 ft 538 kts 94°
2026-04-14 12:57 38.57327 119.91760 36034 ft 538 kts 94°
2026-04-14 12:57 38.57010 119.96500 36266 ft 534 kts 104°
2026-04-14 12:58 38.56275 120.01144 36510 ft 532 kts 106°
2026-04-14 12:58 38.55449 120.05739 36755 ft 531 kts 108°
2026-04-14 12:58 38.54566 120.10310 36995 ft 530 kts 109°
2026-04-14 12:58 38.53648 120.14871 37099 ft 530 kts 110°
2026-04-14 12:59 38.52452 120.19289 37106 ft 523 kts 120°
2026-04-14 12:59 38.50768 120.23338 37111 ft 510 kts 131°
2026-04-14 12:59 38.48594 120.26821 37109 ft 495 kts 144°
2026-04-14 12:59 38.46012 120.29601 37107 ft 478 kts 156°
2026-04-14 13:00 38.43156 120.31602 37108 ft 460 kts 168°
2026-04-14 13:00 38.41182 120.32496 37102 ft 449 kts 176°
2026-04-14 13:00 38.37160 120.33303 37103 ft 428 kts 189°
2026-04-14 13:01 38.32212 120.33533 37101 ft 435 kts 184°
2026-04-14 13:01 38.25155 120.35242 37104 ft 445 kts 178°
2026-04-14 13:02 38.19121 120.37120 37101 ft 447 kts 176°
2026-04-14 13:02 38.13097 120.39108 37099 ft 447 kts 176°
2026-04-14 13:03 38.07077 120.41091 37095 ft 447 kts 176°
2026-04-14 13:03 38.01062 120.43050 37104 ft 446 kts 176°
2026-04-14 13:04 37.95095 120.44979 37102 ft 445 kts 176°
2026-04-14 13:04 37.89090 120.46916 37097 ft 445 kts 176°
2026-04-14 13:05 37.83088 120.48849 37089 ft 445 kts 176°
2026-04-14 13:05 37.77090 120.50778 37085 ft 445 kts 175°
2026-04-14 13:06 37.71095 120.52704 37082 ft 444 kts 175°
2026-04-14 13:06 37.65097 120.54032 37078 ft 428 kts 188°
2026-04-14 13:07 37.59250 120.53636 37083 ft 419 kts 195°
2026-04-14 13:07 37.53475 120.52792 37080 ft 418 kts 196°
2026-04-14 13:08 37.47707 120.51872 37078 ft 418 kts 196°
2026-04-14 13:08 37.41931 120.50977 37070 ft 418 kts 196°
2026-04-14 13:09 37.36149 120.50108 37069 ft 419 kts 195°
2026-04-14 13:09 37.30357 120.49248 37068 ft 419 kts 195°
2026-04-14 13:10 37.24563 120.48389 37064 ft 420 kts 195°
2026-04-14 13:10 37.19700 120.47668 37068 ft 420 kts 195°
2026-04-14 13:11 37.13892 120.46808 37065 ft 421 kts 195°
2026-04-14 13:11 37.08075 120.45947 37061 ft 421 kts 195°
2026-04-14 13:12 37.02250 120.45086 37066 ft 422 kts 195°
2026-04-14 13:12 36.96416 120.44225 37062 ft 422 kts 195°
2026-04-14 13:13 36.90577 120.43366 37062 ft 423 kts 195°
2026-04-14 13:13 36.84728 120.42506 37062 ft 423 kts 195°
2026-04-14 13:14 36.78910 120.41652 37057 ft 424 kts 195°
2026-04-14 13:14 36.73048 120.40793 37060 ft 424 kts 195°
2026-04-14 13:15 36.67180 120.39934 37060 ft 425 kts 195°
2026-04-14 13:15 36.61308 120.39076 37059 ft 425 kts 195°
2026-04-14 13:16 36.55432 120.38220 37059 ft 425 kts 195°
2026-04-14 13:16 36.49503 120.37619 37057 ft 430 kts 191°
2026-04-14 13:17 36.43502 120.37422 37054 ft 432 kts 189°
2026-04-14 13:17 36.37492 120.37280 37062 ft 432 kts 190°
2026-04-14 13:18 36.31465 120.37316 37058 ft 440 kts 183°
2026-04-14 13:18 36.25432 120.39269 37057 ft 461 kts 165°
2026-04-14 13:19 36.19616 120.42747 37063 ft 467 kts 161°
2026-04-14 13:19 36.13841 120.46386 37069 ft 460 kts 167°
2026-04-14 13:19 36.10840 120.47608 37066 ft 448 kts 176°
2026-04-14 13:20 36.07802 120.48228 37073 ft 439 kts 182°
2026-04-14 13:20 36.01740 120.48829 37076 ft 435 kts 186°
2026-04-14 13:21 35.95676 120.49726 37080 ft 449 kts 174°
2026-04-14 13:21 35.89718 120.52388 37082 ft 459 kts 166°
2026-04-14 13:22 35.83847 120.55578 37087 ft 462 kts 165°
2026-04-14 13:22 35.77997 120.58859 37090 ft 462 kts 165°
2026-04-14 13:23 35.72158 120.62167 37089 ft 464 kts 162°
2026-04-14 13:23 35.66437 120.65933 37094 ft 468 kts 160°
2026-04-14 13:24 35.60767 120.69863 37095 ft 468 kts 160°
2026-04-14 13:24 35.52241 120.75697 37097 ft 467 kts 160°
2026-04-14 13:25 35.46466 120.79211 37100 ft 459 kts 166°
2026-04-14 13:26 35.34713 120.85111 37096 ft 457 kts 168°
2026-04-14 13:26 35.28808 120.88009 37098 ft 457 kts 168°
2026-04-14 13:27 35.22909 120.90912 37097 ft 457 kts 168°
2026-04-14 13:27 35.17010 120.93819 37097 ft 457 kts 168°
2026-04-14 13:28 35.11121 120.96735 37097 ft 457 kts 168°
2026-04-14 13:28 35.05236 120.99661 37099 ft 457 kts 168°
2026-04-14 13:29 34.99346 121.02587 37098 ft 457 kts 168°
2026-04-14 13:29 34.93457 121.05505 37097 ft 457 kts 168°
2026-04-14 13:30 34.87565 121.08419 37095 ft 457 kts 168°
2026-04-14 13:30 34.81675 121.11327 37097 ft 457 kts 168°
2026-04-14 13:31 34.75782 121.14233 37096 ft 457 kts 168°
2026-04-14 13:31 34.69891 121.17134 37096 ft 457 kts 168°
2026-04-14 13:32 34.64000 121.20030 37095 ft 457 kts 168°
2026-04-14 13:32 34.58110 121.22919 37094 ft 457 kts 169°
2026-04-14 13:33 34.52221 121.25802 37099 ft 456 kts 169°
2026-04-14 13:33 34.46332 121.28683 37091 ft 456 kts 169°
2026-04-14 13:34 34.37498 121.32998 37101 ft 456 kts 169°
2026-04-14 13:35 34.31610 121.35868 37096 ft 456 kts 169°
2026-04-14 13:35 34.25724 121.38733 37101 ft 456 kts 169°
2026-04-14 13:36 34.19841 121.41592 37095 ft 456 kts 169°
2026-04-14 13:36 34.13955 121.44447 37097 ft 456 kts 170°
2026-04-14 13:37 34.08072 121.47298 37094 ft 456 kts 170°
2026-04-14 13:37 34.02229 121.50124 37094 ft 455 kts 170°
2026-04-14 13:38 33.96345 121.52966 37094 ft 456 kts 170°
2026-04-14 13:38 33.90460 121.55804 37090 ft 456 kts 170°
2026-04-14 13:39 33.84571 121.58639 37095 ft 456 kts 170°
2026-04-14 13:39 33.78679 121.61473 37097 ft 456 kts 171°
2026-04-14 13:40 33.72790 121.64301 37090 ft 456 kts 171°
2026-04-14 13:40 33.66899 121.67162 37092 ft 457 kts 170°
2026-04-14 13:41 33.61010 121.70048 37093 ft 457 kts 170°
2026-04-14 13:41 33.55121 121.72933 37093 ft 457 kts 170°
2026-04-14 13:42 33.49235 121.75810 37092 ft 457 kts 171°
2026-04-14 13:42 33.43346 121.78684 37090 ft 457 kts 171°
2026-04-14 13:43 33.37461 121.81552 37092 ft 457 kts 171°
2026-04-14 13:43 33.31576 121.84416 37091 ft 457 kts 171°
2026-04-14 13:44 33.25693 121.87274 37092 ft 456 kts 171°
2026-04-14 13:44 33.19810 121.90129 37092 ft 456 kts 171°
2026-04-14 13:45 33.13931 121.92977 37092 ft 456 kts 171°
2026-04-14 13:45 33.08053 121.95821 37092 ft 456 kts 171°
2026-04-14 13:46 33.02213 121.98641 36839 ft 455 kts 171°
2026-04-14 13:46 32.99240 122.00076 36584 ft 455 kts 171°
2026-04-14 13:46 32.96341 122.01474 36334 ft 455 kts 171°
2026-04-14 13:46 32.93404 122.02889 36091 ft 455 kts 170°
2026-04-14 13:47 32.90470 122.04301 35855 ft 455 kts 170°
2026-04-14 13:47 32.87532 122.05715 35604 ft 455 kts 170°
2026-04-14 13:47 32.84597 122.07126 35365 ft 455 kts 170°
2026-04-14 13:47 32.81657 122.08538 35126 ft 456 kts 169°
2026-04-14 13:48 32.78714 122.09950 34889 ft 456 kts 169°
2026-04-14 13:48 32.75773 122.11361 34646 ft 456 kts 169°
2026-04-14 13:48 32.72828 122.12773 34424 ft 457 kts 169°
2026-04-14 13:48 32.69878 122.14186 34201 ft 458 kts 169°
2026-04-14 13:49 32.66922 122.15601 33956 ft 458 kts 168°
2026-04-14 13:49 32.63962 122.17017 33687 ft 459 kts 168°
2026-04-14 13:49 32.60998 122.18434 33412 ft 460 kts 168°
2026-04-14 13:49 32.58025 122.19854 33148 ft 461 kts 168°
2026-04-14 13:50 32.55043 122.21278 32886 ft 462 kts 168°
2026-04-14 13:50 32.52053 122.22704 32627 ft 463 kts 168°
2026-04-14 13:50 32.49060 122.24131 32368 ft 464 kts 167°
2026-04-14 13:50 32.46061 122.25560 32119 ft 465 kts 167°
2026-04-14 13:51 32.43060 122.26988 31862 ft 466 kts 167°
2026-04-14 13:51 32.40053 122.28419 31612 ft 466 kts 167°
2026-04-14 13:51 32.37040 122.29851 31367 ft 467 kts 167°
2026-04-14 13:51 32.34028 122.31282 31118 ft 467 kts 167°
2026-04-14 13:52 32.31012 122.32714 30877 ft 467 kts 167°
2026-04-14 13:52 32.27995 122.34145 30641 ft 467 kts 167°
2026-04-14 13:52 32.24976 122.35576 30397 ft 468 kts 166°
2026-04-14 13:52 32.21954 122.37008 30159 ft 468 kts 166°
2026-04-14 13:53 32.18934 122.38438 29901 ft 468 kts 166°
2026-04-14 13:53 32.15910 122.39868 29622 ft 468 kts 166°
2026-04-14 13:53 32.12887 122.41296 29347 ft 469 kts 166°
2026-04-14 13:53 32.09855 122.42728 29195 ft 470 kts 166°
2026-04-14 13:54 32.06816 122.44162 29190 ft 471 kts 166°
2026-04-14 13:54 32.01764 122.46545 29191 ft 470 kts 166°
2026-04-14 13:55 31.95689 122.49406 29190 ft 470 kts 166°
2026-04-14 13:55 31.88611 122.52733 29191 ft 473 kts 166°
2026-04-14 13:56 31.82509 122.55599 28579 ft 469 kts 166°
2026-04-14 13:56 31.80451 122.56565 27785 ft 473 kts 166°
2026-04-14 13:56 31.76358 122.58476 26156 ft 483 kts 166°
2026-04-14 13:56 31.73221 122.59942 25037 ft 487 kts 165°
2026-04-14 13:57 31.71088 122.60941 24352 ft 488 kts 165°
2026-04-14 13:57 31.67980 122.62397 23463 ft 486 kts 165°
2026-04-14 13:57 31.64852 122.63868 22454 ft 482 kts 165°
2026-04-14 13:57 31.61688 122.64971 21487 ft 467 kts 177°
2026-04-14 13:58 31.58517 122.65076 20576 ft 448 kts 192°
2026-04-14 13:58 31.55573 122.64157 19675 ft 431 kts 208°
2026-04-14 13:58 31.53078 122.62325 18777 ft 419 kts 224°
2026-04-14 13:58 31.51175 122.59802 17790 ft 410 kts 238°
2026-04-14 13:59 31.49807 122.56933 16569 ft 398 kts 245°
2026-04-14 13:59 31.48643 122.54065 15685 ft 380 kts 247°
2026-04-14 13:59 31.47544 122.51321 14921 ft 366 kts 247°
2026-04-14 13:59 31.46457 122.48642 14122 ft 364 kts 246°
2026-04-14 14:00 31.45105 122.46118 13287 ft 368 kts 234°
2026-04-14 14:00 31.43211 122.44102 12514 ft 372 kts 218°
2026-04-14 14:00 31.40955 122.42613 11740 ft 372 kts 211°
2026-04-14 14:00 31.38645 122.41291 11272 ft 363 kts 210°
2026-04-14 14:01 31.36431 122.40055 11152 ft 342 kts 210°
2026-04-14 14:01 31.34341 122.38883 11042 ft 324 kts 210°
2026-04-14 14:01 31.32364 122.37766 10935 ft 308 kts 211°
2026-04-14 14:01 31.30485 122.36700 10817 ft 293 kts 211°
2026-04-14 14:02 31.28689 122.35676 10585 ft 285 kts 211°
2026-04-14 14:02 31.26905 122.34654 10152 ft 286 kts 211°
2026-04-14 14:02 31.25117 122.33628 9691 ft 286 kts 211°
2026-04-14 14:02 31.23332 122.32608 9223 ft 284 kts 210°
2026-04-14 14:03 31.21565 122.31600 8809 ft 281 kts 210°
2026-04-14 14:03 31.19816 122.30602 8399 ft 278 kts 210°
2026-04-14 14:03 31.18081 122.29613 7984 ft 277 kts 210°
2026-04-14 14:03 31.16358 122.28631 7577 ft 275 kts 210°
2026-04-14 14:04 31.14645 122.27655 7179 ft 273 kts 210°
2026-04-14 14:04 31.12941 122.26684 6771 ft 272 kts 209°
2026-04-14 14:04 31.11246 122.25719 6383 ft 270 kts 209°
2026-04-14 14:04 31.09563 122.24762 5967 ft 268 kts 209°
2026-04-14 14:05 31.07892 122.23811 5753 ft 266 kts 208°
2026-04-14 14:05 31.06230 122.22866 5666 ft 261 kts 208°
2026-04-14 14:05 31.04638 122.21963 5539 ft 248 kts 209°
2026-04-14 14:05 31.03116 122.21101 5376 ft 239 kts 209°
2026-04-14 14:06 31.01648 122.20267 5284 ft 233 kts 209°
2026-04-14 14:06 31.00185 122.19435 5168 ft 234 kts 209°
2026-04-14 14:06 30.98737 122.18611 5044 ft 235 kts 208°
2026-04-14 14:06 30.97271 122.17778 4913 ft 234 kts 208°
2026-04-14 14:07 30.95806 122.16947 4797 ft 234 kts 208°
2026-04-14 14:07 30.94344 122.16118 4662 ft 234 kts 208°
2026-04-14 14:07 30.92883 122.15289 4548 ft 233 kts 208°
2026-04-14 14:07 30.91422 122.14462 4408 ft 233 kts 208°
2026-04-14 14:08 30.89963 122.13636 4275 ft 233 kts 208°
2026-04-14 14:08 30.88505 122.12810 4142 ft 233 kts 208°
2026-04-14 14:08 30.87048 122.11985 4023 ft 233 kts 208°
2026-04-14 14:08 30.85597 122.11165 3897 ft 229 kts 208°
2026-04-14 14:09 30.84191 122.10370 3767 ft 221 kts 208°
2026-04-14 14:09 30.82929 122.09394 3652 ft 217 kts 227°
2026-04-14 14:09 30.82149 122.07927 3562 ft 214 kts 256°
2026-04-14 14:09 30.82103 122.06223 3448 ft 213 kts 284°
2026-04-14 14:10 30.82775 122.04705 3327 ft 213 kts 308°
2026-04-14 14:10 30.83772 122.03421 3198 ft 214 kts 313°
2026-04-14 14:10 30.84823 122.02188 3086 ft 214 kts 314°
2026-04-14 14:10 30.85851 122.00985 3011 ft 204 kts 314°
2026-04-14 14:11 30.86838 121.99817 2990 ft 202 kts 314°
2026-04-14 14:11 30.87825 121.98639 2998 ft 204 kts 313°
2026-04-14 14:11 30.88813 121.97453 3000 ft 204 kts 313°
2026-04-14 14:11 30.89797 121.96269 3010 ft 199 kts 313°
2026-04-14 14:12 30.90718 121.95158 3016 ft 185 kts 313°
2026-04-14 14:12 30.91604 121.94088 2989 ft 184 kts 313°
2026-04-14 14:12 30.92491 121.93015 2983 ft 184 kts 313°
2026-04-14 14:12 30.93379 121.91940 2978 ft 184 kts 313°
2026-04-14 14:13 30.94269 121.90863 2991 ft 184 kts 313°
2026-04-14 14:13 30.95188 121.89825 2985 ft 185 kts 321°
2026-04-14 14:13 30.96307 121.89091 2991 ft 186 kts 336°
2026-04-14 14:13 30.97527 121.88599 2991 ft 186 kts 340°
2026-04-14 14:14 30.98762 121.88140 2936 ft 186 kts 340°
2026-04-14 14:14 30.99976 121.87684 2696 ft 182 kts 340°
2026-04-14 14:14 31.01173 121.87230 2443 ft 180 kts 340°
2026-04-14 14:14 31.02325 121.86794 2187 ft 172 kts 340°
2026-04-14 14:15 31.03446 121.86371 1961 ft 162 kts 340°
2026-04-14 14:15 31.04467 121.85985 1746 ft 151 kts 340°
2026-04-14 14:15 31.05427 121.85622 1580 ft 140 kts 340°
2026-04-14 14:15 31.06340 121.85276 1412 ft 135 kts 341°
2026-04-14 14:16 31.07244 121.84934 1192 ft 138 kts 341°
2026-04-14 14:16 31.08160 121.84587 1004 ft 139 kts 341°
2026-04-14 14:16 31.09075 121.84240 813 ft 138 kts 342°
2026-04-14 14:17 31.10904 121.83548 448 ft 139 kts 344°
2026-04-14 14:17 31.11822 121.83201 265 ft 138 kts 343°
2026-04-14 14:17 31.12738 121.82853 86 ft 138 kts 344°
2026-04-14 14:17 31.13617 121.82526 29 ft 118 kts 344°
2026-04-14 14:18 31.14233 121.82308 26 ft 64 kts 340°
2026-04-14 14:18 31.14492 121.82305 25 ft 25 kts 10°
2026-04-14 14:18 31.14664 121.82333 26 ft 25 kts 353°
2026-04-14 14:18 31.14830 121.82276 25 ft 25 kts 342°
2026-04-14 14:19 31.15000 121.82215 25 ft 26 kts 343°
2026-04-14 14:19 31.15166 121.82152 25 ft 25 kts 342°
2026-04-14 14:19 31.15326 121.82089 26 ft 24 kts 342°
2026-04-14 14:19 31.15483 121.82030 27 ft 24 kts 342°
2026-04-14 14:20 31.15638 121.81971 29 ft 23 kts 342°
2026-04-14 14:20 31.15792 121.81913 27 ft 24 kts 342°
2026-04-14 14:20 31.15944 121.81856 26 ft 19 kts 342°
2026-04-14 14:20 31.16052 121.81798 25 ft 9 kts 295°
2026-04-14 14:21 31.16043 121.81752 25 ft 9 kts 251°
2026-04-14 14:21 31.16014 121.81645 24 ft 18 kts 252°
2026-04-14 14:21 31.15970 121.81482 26 ft 24 kts 252°
2026-04-14 14:21 31.15910 121.81272 25 ft 29 kts 252°
2026-04-14 14:22 31.15846 121.81041 27 ft 30 kts 252°
2026-04-14 14:22 31.15878 121.80950 27 ft 6 kts 356°
2026-04-14 14:22 31.15940 121.80938 26 ft 13 kts 346°
2026-04-14 14:22 31.16033 121.80902 26 ft 15 kts 342°
2026-04-14 14:23 31.16134 121.80864 26 ft 16 kts 341°
2026-04-14 14:23 31.16153 121.80790 30 ft 8 kts 247°
2026-04-14 14:23 31.16135 121.80730 26 ft 7 kts 252°
2026-04-14 14:23 31.16116 121.80660 27 ft 11 kts 252°
2026-04-14 14:24 31.16091 121.80574 26 ft 11 kts 246°
2026-04-14 14:24 31.16048 121.80519 29 ft 8 kts 219°
2026-04-14 14:24 31.16012 121.80482 26 ft 0 kts 222°